• en Belgique
  • Liste des pays
  • À 7 jours
  • Température de l'eau
  • Carte satellitaire
  • Carte météo
  • Widgets météo
  • user-avatar
    Se connecter

    Météo par heure à Kosani

    Ce jour, 20 Juin, Mercredi

    Heure Température Précipitation Vent Pression Humidité
    00:00 +18°C° 0 mm 1 m/s 705 mmHg 72%
    01:00 +18°C° 0 mm 1 m/s 705 mmHg 73%
    02:00 +18°C° 0 mm 1 m/s 705 mmHg 75%
    03:00 +16°C° 0 mm 1 m/s 705 mmHg 76%
    04:00 +16°C° 0 mm 2 m/s 705 mmHg 77%
    05:00 +18°C° 0 mm 2 m/s 706 mmHg 73%
    06:00 +19°C° 0 mm 2 m/s 706 mmHg 69%
    07:00 +21°C° 0 mm 2 m/s 707 mmHg 64%
    08:00 +24°C° 0 mm 2 m/s 707 mmHg 58%
    09:00 +25°C° 0 mm 2 m/s 707 mmHg 52%
    10:00 +26°C° 0 mm 2 m/s 707 mmHg 45%
    11:00 +27°C° 0 mm 2 m/s 707 mmHg 44%
    12:00 +27°C° 0 mm 2 m/s 707 mmHg 43%
    13:00 +28°C° 0 mm 2 m/s 707 mmHg 42%
    14:00 +27°C° 0,1 mm 2 m/s 707 mmHg 44%
    15:00 +27°C° 0,1 mm 2 m/s 707 mmHg 47%
    16:00 +26°C° 0,1 mm 1 m/s 706 mmHg 49%
    17:00 +25°C° 0,1 mm 1 m/s 706 mmHg 53%
    18:00 +23°C° 0,1 mm 1 m/s 706 mmHg 56%
    19:00 +22°C° 0,1 mm 1 m/s 706 mmHg 60%
    20:00 +21°C° 0 mm 1 m/s 706 mmHg 61%
    21:00 +20°C° 0 mm 1 m/s 706 mmHg 62%
    22:00 +19°C° 0 mm 1 m/s 707 mmHg 63%
    23:00 +19°C° 0 mm 1 m/s 706 mmHg 64%

    Demain, 21 Juin, Jeudi

    Heure Température Précipitation Vent Pression Humidité
    00:00 +19°C° 0 mm 1 m/s 706 mmHg 65%
    01:00 +18°C° 0 mm 1 m/s 706 mmHg 66%
    02:00 +18°C° 0 mm 1 m/s 706 mmHg 66%
    03:00 +18°C° 0 mm 1 m/s 706 mmHg 67%
    04:00 +18°C° 0 mm 1 m/s 706 mmHg 68%
    05:00 +20°C° 0,1 mm 1 m/s 706 mmHg 65%
    06:00 +21°C° 0,1 mm 1 m/s 706 mmHg 62%
    07:00 +22°C° 0,1 mm 1 m/s 706 mmHg 60%
    08:00 +24°C° 0,2 mm 1 m/s 706 mmHg 56%
    09:00 +25°C° 0,2 mm 1 m/s 706 mmHg 52%
    10:00 +26°C° 0,2 mm 1 m/s 706 mmHg 48%
    11:00 +27°C° 0,2 mm 1 m/s 706 mmHg 46%
    12:00 +27°C° 0,2 mm 1 m/s 706 mmHg 45%
    13:00 +28°C° 0,2 mm 1 m/s 705 mmHg 44%
    14:00 +27°C° 0,2 mm 1 m/s 705 mmHg 46%
    15:00 +27°C° 0,2 mm 1 m/s 705 mmHg 47%
    16:00 +27°C° 0,2 mm 1 m/s 704 mmHg 49%
    17:00 +25°C° 0,4 mm 1 m/s 704 mmHg 54%
    18:00 +24°C° 0,4 mm 1 m/s 704 mmHg 59%
    19:00 +22°C° 0,4 mm 1 m/s 704 mmHg 64%
    20:00 +21°C° 0,4 mm 1 m/s 704 mmHg 67%
    21:00 +20°C° 0,4 mm 1 m/s 704 mmHg 70%
    22:00 +20°C° 0,4 mm 1 m/s 704 mmHg 73%
    23:00 +19°C° 0,3 mm 1 m/s 704 mmHg 75%

    Après-demain, 22 Juin, Vendredi

    Heure Température Précipitation Vent Pression Humidité
    00:00 +19°C° 0,3 mm 1 m/s 703 mmHg 77%
    01:00 +17°C° 0,3 mm 2 m/s 703 mmHg 78%
    02:00 +17°C° 0 mm 2 m/s 703 mmHg 79%
    03:00 +17°C° 0 mm 2 m/s 703 mmHg 80%
    04:00 +16°C° 0 mm 2 m/s 702 mmHg 81%
    05:00 +18°C° 0 mm 2 m/s 703 mmHg 76%
    06:00 +21°C° 0 mm 1 m/s 703 mmHg 70%
    07:00 +23°C° 0 mm 1 m/s 703 mmHg 65%
    08:00 +24°C° 0,1 mm 1 m/s 703 mmHg 59%
    09:00 +26°C° 0,1 mm 2 m/s 703 mmHg 54%
    10:00 +27°C° 0,1 mm 2 m/s 704 mmHg 48%
    11:00 +28°C° 0,4 mm 2 m/s 703 mmHg 47%
    12:00 +28°C° 0,4 mm 2 m/s 703 mmHg 46%
    13:00 +29°C° 0,4 mm 2 m/s 703 mmHg 45%
    14:00 +29°C° 0,2 mm 3 m/s 703 mmHg 47%
    15:00 +28°C° 0,2 mm 3 m/s 702 mmHg 50%
    16:00 +28°C° 0,2 mm 3 m/s 702 mmHg 52%
    17:00 +26°C° 0,4 mm 3 m/s 702 mmHg 58%
    18:00 +24°C° 0,4 mm 2 m/s 702 mmHg 64%
    19:00 +23°C° 0,4 mm 2 m/s 702 mmHg 70%
    20:00 +21°C° 0,7 mm 2 m/s 702 mmHg 73%
    21:00 +20°C° 0,7 mm 2 m/s 702 mmHg 76%
    22:00 +19°C° 0,7 mm 2 m/s 703 mmHg 79%
    23:00 +19°C° 0,5 mm 2 m/s 702 mmHg 81%

    23 Juin, Samedi

    Heure Température Précipitation Vent Pression Humidité
    00:00 +18°C° 0,5 mm 2 m/s 702 mmHg 83%
    01:00 +18°C° 0,5 mm 2 m/s 702 mmHg 85%
    02:00 +17°C° 0,2 mm 2 m/s 702 mmHg 86%
    03:00 +16°C° 0,2 mm 2 m/s 702 mmHg 86%
    04:00 +16°C° 0,2 mm 2 m/s 702 mmHg 87%
    05:00 +17°C° 0 mm 2 m/s 703 mmHg 80%
    06:00 +18°C° 0 mm 2 m/s 703 mmHg 74%
    07:00 +19°C° 0 mm 3 m/s 704 mmHg 68%
    08:00 +20°C° 0 mm 3 m/s 704 mmHg 62%
    09:00 +22°C° 0 mm 3 m/s 704 mmHg 57%
    10:00 +24°C° 0 mm 3 m/s 704 mmHg 51%
    11:00 +25°C° 0,1 mm 2 m/s 704 mmHg 51%
    12:00 +25°C° 0,1 mm 2 m/s 704 mmHg 50%
    13:00 +26°C° 0,1 mm 2 m/s 704 mmHg 49%
    14:00 +25°C° 0,5 mm 2 m/s 704 mmHg 55%
    15:00 +23°C° 0,5 mm 2 m/s 704 mmHg 60%
    16:00 +21°C° 0,5 mm 2 m/s 704 mmHg 66%
    17:00 +20°C° 1 mm 2 m/s 704 mmHg 72%
    18:00 +18°C° 1 mm 2 m/s 704 mmHg 77%
    19:00 +18°C° 1 mm 1 m/s 704 mmHg 83%
    20:00 +18°C° 0,5 mm 1 m/s 704 mmHg 83%
    21:00 +18°C° 0,5 mm 1 m/s 704 mmHg 84%
    22:00 +18°C° 0,5 mm 1 m/s 705 mmHg 84%
    23:00 +16°C° 0,2 mm 1 m/s 704 mmHg 84%

    24 Juin, Dimanche

    Heure Température Précipitation Vent Pression Humidité
    00:00 +16°C° 0,2 mm 1 m/s 704 mmHg 84%
    01:00 +16°C° 0,2 mm 1 m/s 704 mmHg 84%
    02:00 +16°C° 0,2 mm 1 m/s 704 mmHg 84%
    03:00 +16°C° 0,2 mm 1 m/s 704 mmHg 84%
    04:00 +15°C° 0,2 mm 1 m/s 704 mmHg 84%
    05:00 +16°C° 0,1 mm 1 m/s 704 mmHg 83%
    06:00 +16°C° 0,1 mm 1 m/s 704 mmHg 81%
    07:00 +18°C° 0,1 mm 1 m/s 705 mmHg 79%
    08:00 +18°C° 0,1 mm 1 m/s 705 mmHg 78%
    09:00 +19°C° 0,1 mm 1 m/s 705 mmHg 76%
    10:00 +18°C° 0,1 mm 2 m/s 705 mmHg 75%
    11:00 +19°C° 0,1 mm 2 m/s 705 mmHg 73%
    12:00 +20°C° 0,1 mm 2 m/s 705 mmHg 72%
    13:00 +20°C° 0,1 mm 2 m/s 705 mmHg 70%
    14:00 +21°C° 0,1 mm 2 m/s 704 mmHg 69%
    15:00 +21°C° 0,1 mm 2 m/s 704 mmHg 69%
    16:00 +21°C° 0,1 mm 2 m/s 704 mmHg 68%
    17:00 +20°C° 0,3 mm 2 m/s 704 mmHg 73%
    18:00 +20°C° 0,3 mm 1 m/s 704 mmHg 78%
    19:00 +19°C° 0,3 mm 1 m/s 704 mmHg 83%
    20:00 +19°C° 0,7 mm 1 m/s 704 mmHg 86%
    21:00 +18°C° 0,7 mm 1 m/s 704 mmHg 88%
    22:00 +16°C° 0,7 mm 1 m/s 704 mmHg 91%
    23:00 +16°C° 0,5 mm 1 m/s 704 mmHg 91%

    25 Juin, Lundi

    Heure Température Précipitation Vent Pression Humidité
    00:00 +16°C° 0,5 mm 1 m/s 704 mmHg 91%
    01:00 +16°C° 0,5 mm 1 m/s 704 mmHg 91%
    02:00 +16°C° 0,2 mm 1 m/s 704 mmHg 91%
    03:00 +16°C° 0,2 mm 1 m/s 703 mmHg 91%
    04:00 +16°C° 0,2 mm 1 m/s 703 mmHg 90%
    05:00 +16°C° 0,2 mm 1 m/s 703 mmHg 87%
    06:00 +18°C° 0,2 mm 1 m/s 704 mmHg 84%
    07:00 +19°C° 0,2 mm 1 m/s 704 mmHg 81%
    08:00 +18°C° 0,5 mm 2 m/s 704 mmHg 79%
    09:00 +19°C° 0,5 mm 2 m/s 704 mmHg 76%
    10:00 +20°C° 0,5 mm 2 m/s 704 mmHg 74%
    11:00 +19°C° 1,7 mm 2 m/s 703 mmHg 76%
    12:00 +19°C° 1,7 mm 2 m/s 703 mmHg 78%
    13:00 +19°C° 1,7 mm 2 m/s 703 mmHg 80%
    14:00 +19°C° 2,5 mm 2 m/s 703 mmHg 83%
    15:00 +18°C° 2,5 mm 2 m/s 703 mmHg 86%
    16:00 +18°C° 2,5 mm 1 m/s 702 mmHg 90%
    17:00 +18°C° 1,8 mm 1 m/s 702 mmHg 91%
    18:00 +16°C° 1,8 mm 1 m/s 702 mmHg 92%
    19:00 +16°C° 1,8 mm 1 m/s 702 mmHg 93%
    20:00 +16°C° 1,5 mm 1 m/s 702 mmHg 93%
    21:00 +16°C° 1,5 mm 1 m/s 702 mmHg 94%
    22:00 +15°C° 1,5 mm 1 m/s 703 mmHg 94%
    23:00 +15°C° 0,7 mm 1 m/s 702 mmHg 94%
    Voir plus